| time (UTC) | temp F | wind direction | speed MPH | gust MPH | rain 1hr in | rain 24hr in | rain mn in | humidity % | barometer mb |
| 20260508181239 | 90 | 232 | 7.0 | 7.0 | 0.00 | 0.00 | 0.00 | 57 | 1015.5 |
| 20260508180735 | 90 | 260 | 6.0 | 7.0 | 0.00 | 0.00 | 0.00 | 57 | 1015.5 |
| 20260508180232 | 91 | 30 | 1.0 | 3.0 | 0.00 | 0.00 | 0.00 | 54 | 1015.5 |
| 20260508175729 | 91 | 274 | 3.0 | 3.0 | 0.00 | 0.00 | 0.00 | 56 | 1015.5 |
| 20260508175225 | 91 | 288 | 3.0 | 5.0 | 0.00 | 0.00 | 0.00 | 56 | 1015.8 |
| 20260508174723 | 91 | 171 | 2.0 | 3.0 | 0.00 | 0.00 | 0.00 | 56 | 1015.8 |
| 20260508174221 | 90 | 272 | 5.0 | 7.0 | 0.00 | 0.00 | 0.00 | 56 | 1015.8 |
| 20260508173716 | 89 | 292 | 6.0 | 7.0 | 0.00 | 0.00 | 0.00 | 58 | 1015.8 |
| 20260508173212 | 89 | 253 | 4.0 | 5.0 | 0.00 | 0.00 | 0.00 | 58 | 1016.2 |
| 20260508172710 | 91 | 223 | 7.0 | 8.0 | 0.00 | 0.00 | 0.00 | 58 | 1016.2 |
| 20260508172207 | 90 | 199 | 1.0 | 1.0 | 0.00 | 0.00 | 0.00 | 57 | 1016.2 |
| 20260508171703 | 89 | 242 | 6.0 | 7.0 | 0.00 | 0.00 | 0.00 | 58 | 1016.2 |
| 20260508171159 | 90 | 236 | 6.0 | 7.0 | 0.00 | 0.00 | 0.00 | 57 | 1016.5 |
| 20260508170656 | 89 | 260 | 3.0 | 3.0 | 0.00 | 0.00 | 0.00 | 57 | 1016.2 |
| 20260508170154 | 88 | 121 | 1.0 | 2.0 | 0.00 | 0.00 | 0.00 | 59 | 1016.2 |
| 20260508165651 | 88 | 262 | 3.0 | 5.0 | 0.00 | 0.00 | 0.00 | 60 | 1016.5 |
| 20260508165148 | 87 | 221 | 4.0 | 6.0 | 0.00 | 0.00 | 0.00 | 63 | 1016.5 |
| 20260508164644 | 88 | 212 | 1.0 | 1.0 | 0.00 | 0.00 | 0.00 | 63 | 1016.9 |
| 20260508164141 | 89 | 334 | 3.0 | 5.0 | 0.00 | 0.00 | 0.00 | 61 | 1016.5 |
| 20260508163639 | 87 | 181 | 0.0 | 1.0 | 0.00 | 0.00 | 0.00 | 62 | 1016.9 |
| 20260508163136 | 87 | 307 | 2.0 | 3.0 | 0.00 | 0.00 | 0.00 | 64 | 1016.9 |
| 20260508162632 | 87 | 275 | 3.0 | 5.0 | 0.00 | 0.00 | 0.00 | 65 | 1016.9 |
| 20260508162129 | 86 | 0 | 4.0 | 5.0 | 0.00 | 0.00 | 0.00 | 68 | 1016.9 |
| 20260508161626 | 86 | 282 | 5.0 | 6.0 | 0.00 | 0.00 | 0.00 | 68 | 1016.9 |
| 20260508161123 | 86 | 228 | 6.0 | 7.0 | 0.00 | 0.00 | 0.00 | 68 | 1017.2 |
| 20260508160621 | 86 | 6 | 2.0 | 2.0 | 0.00 | 0.00 | 0.00 | 67 | 1017.2 |
| 20260508160118 | 86 | 257 | 10.0 | 11.0 | 0.00 | 0.00 | 0.00 | 70 | 1017.2 |
| 20260508155610 | 85 | 301 | 3.0 | 3.0 | 0.00 | 0.00 | 0.00 | 72 | 1017.2 |
| 20260508155107 | 86 | 266 | 3.0 | 5.0 | 0.00 | 0.00 | 0.00 | 68 | 1017.2 |
| 20260508154604 | 86 | 307 | 5.0 | 7.0 | 0.00 | 0.00 | 0.00 | 68 | 1017.5 |
| 20260508154101 | 87 | 246 | 3.0 | 5.0 | 0.00 | 0.00 | 0.00 | 68 | 1017.5 |
| 20260508153558 | 86 | 35 | 2.0 | 2.0 | 0.00 | 0.00 | 0.00 | 69 | 1017.9 |
| 20260508153054 | 85 | 350 | 4.0 | 6.0 | 0.00 | 0.00 | 0.00 | 71 | 1017.5 |
| 20260508152551 | 85 | 247 | 8.0 | 10.0 | 0.00 | 0.00 | 0.00 | 72 | 1017.5 |
| 20260508152046 | 86 | 271 | 9.0 | 11.0 | 0.00 | 0.00 | 0.00 | 69 | 1017.5 |
| 20260508151543 | 85 | 310 | 1.0 | 2.0 | 0.00 | 0.00 | 0.00 | 71 | 1017.9 |
| 20260508151040 | 84 | 323 | 5.0 | 7.0 | 0.00 | 0.00 | 0.00 | 73 | 1017.9 |
| 20260508150538 | 83 | 287 | 6.0 | 7.0 | 0.00 | 0.00 | 0.00 | 76 | 1017.9 |
| 20260508150033 | 83 | 231 | 7.0 | 8.0 | 0.00 | 0.00 | 0.00 | 77 | 1017.5 |
| 20260508145530 | 83 | 246 | 7.0 | 8.0 | 0.00 | 0.00 | 0.00 | 78 | 1017.5 |
| 20260508145026 | 84 | 244 | 4.0 | 5.0 | 0.00 | 0.00 | 0.00 | 77 | 1017.9 |
| 20260508144524 | 84 | 236 | 4.0 | 5.0 | 0.00 | 0.00 | 0.00 | 75 | 1017.5 |
| 20260508144021 | 83 | 12 | 5.0 | 8.0 | 0.00 | 0.00 | 0.00 | 78 | 1017.9 |
| 20260508143519 | 83 | 225 | 1.0 | 2.0 | 0.00 | 0.00 | 0.00 | 79 | 1017.5 |
| 20260508143015 | 82 | 231 | 4.0 | 5.0 | 0.00 | 0.00 | 0.00 | 79 | 1017.5 |
| 20260508142512 | 82 | 230 | 5.0 | 6.0 | 0.00 | 0.00 | 0.00 | 82 | 1017.9 |
| 20260508142009 | 83 | 235 | 3.0 | 3.0 | 0.00 | 0.00 | 0.00 | 81 | 1017.5 |
| 20260508141505 | 82 | 289 | 2.0 | 2.0 | 0.00 | 0.00 | 0.00 | 81 | 1017.9 |
| 20260508141003 | 82 | 275 | 4.0 | 5.0 | 0.00 | 0.00 | 0.00 | 82 | 1017.9 |
| 20260508140500 | 81 | 174 | 1.0 | 2.0 | 0.00 | 0.00 | 0.00 | 84 | 1017.5 |
| 20260508135955 | 82 | 282 | 4.0 | 6.0 | 0.00 | 0.00 | 0.00 | 82 | 1017.5 |
| 20260508135452 | 80 | 228 | 3.0 | 3.0 | 0.00 | 0.00 | 0.00 | 84 | 1017.9 |
| 20260508134949 | 80 | 241 | 3.0 | 3.0 | 0.00 | 0.00 | 0.00 | 84 | 1017.5 |
| 20260508134445 | 80 | 261 | 6.0 | 7.0 | 0.00 | 0.00 | 0.00 | 85 | 1017.9 |
| 20260508133942 | 82 | 293 | 6.0 | 9.0 | 0.00 | 0.00 | 0.00 | 84 | 1017.5 |
| 20260508133439 | 82 | 249 | 3.0 | 5.0 | 0.00 | 0.00 | 0.00 | 85 | 1017.5 |
| 20260508132936 | 82 | 349 | 3.0 | 3.0 | 0.00 | 0.00 | 0.00 | 85 | 1017.5 |
| 20260508132434 | 80 | 237 | 2.0 | 2.0 | 0.00 | 0.00 | 0.00 | 88 | 1017.5 |
| 20260508131931 | 80 | 331 | 7.0 | 8.0 | 0.00 | 0.00 | 0.00 | 87 | 1017.2 |
| 20260508131426 | 79 | 249 | 3.0 | 3.0 | 0.00 | 0.00 | 0.00 | 89 | 1017.5 |
| 20260508130923 | 80 | 215 | 4.0 | 5.0 | 0.00 | 0.00 | 0.00 | 88 | 1017.5 |
| 20260508130420 | 80 | 319 | 2.0 | 2.0 | 0.00 | 0.00 | 0.00 | 89 | 1017.2 |
| 20260508125916 | 79 | 228 | 4.0 | 6.0 | 0.00 | 0.00 | 0.00 | 90 | 1017.5 |
| 20260508125412 | 79 | 261 | 4.0 | 5.0 | 0.00 | 0.00 | 0.00 | 91 | 1017.5 |
| 20260508124910 | 78 | 231 | 4.0 | 5.0 | 0.00 | 0.00 | 0.00 | 92 | 1017.2 |
| 20260508124407 | 79 | 228 | 5.0 | 6.0 | 0.00 | 0.00 | 0.00 | 91 | 1017.2 |
| 20260508123905 | 78 | 239 | 3.0 | 6.0 | 0.00 | 0.00 | 0.00 | 92 | 1017.2 |
| 20260508123403 | 78 | 260 | 2.0 | 2.0 | 0.00 | 0.00 | 0.00 | 93 | 1016.9 |
| 20260508122859 | 78 | 337 | 4.0 | 5.0 | 0.00 | 0.00 | 0.00 | 93 | 1016.9 |
| 20260508122356 | 77 | 229 | 5.0 | 6.0 | 0.00 | 0.00 | 0.00 | 94 | 1017.2 |
| 20260508121854 | 77 | 262 | 3.0 | 5.0 | 0.00 | 0.00 | 0.00 | 95 | 1016.9 |
| 20260508121352 | 76 | 256 | 2.0 | 2.0 | 0.00 | 0.00 | 0.00 | 96 | 1016.9 |
| 20260508120849 | 76 | 261 | 2.0 | 2.0 | 0.00 | 0.00 | 0.00 | 97 | 1016.9 |
| 20260508120347 | 75 | 229 | 2.0 | 2.0 | 0.00 | 0.00 | 0.00 | 98 | 1016.9 |
| 20260508115844 | 75 | 276 | 1.0 | 2.0 | 0.00 | 0.00 | 0.00 | 99 | 1017.2 |
| 20260508115341 | 74 | 243 | 1.0 | 1.0 | 0.00 | 0.00 | 0.00 | 99 | 1016.9 |
| 20260508114838 | 74 | 227 | 0.0 | 1.0 | 0.00 | 0.00 | 0.00 | 99 | 1016.9 |
| 20260508114335 | 74 | 231 | 0.0 | 0.0 | 0.00 | 0.00 | 0.00 | 99 | 1016.9 |
| 20260508113832 | 73 | 237 | 0.0 | 0.0 | 0.00 | 0.00 | 0.00 | 99 | 1016.9 |
| 20260508113330 | 73 | 239 | 0.0 | 0.0 | 0.00 | 0.00 | 0.00 | 99 | 1016.9 |
| 20260508112826 | 73 | 239 | 0.0 | 0.0 | 0.00 | 0.00 | 0.00 | 99 | 1016.9 |
| 20260508112323 | 72 | 239 | 0.0 | 0.0 | 0.00 | 0.00 | 0.00 | 99 | 1016.5 |
| 20260508111820 | 72 | 239 | 0.0 | 0.0 | 0.00 | 0.00 | 0.00 | 99 | 1016.5 |
| 20260508111317 | 72 | 239 | 0.0 | 0.0 | 0.00 | 0.00 | 0.00 | 99 | 1016.5 |
| 20260508110814 | 71 | 239 | 0.0 | 0.0 | 0.00 | 0.00 | 0.00 | 99 | 1016.2 |
| 20260508110312 | 71 | 238 | 0.0 | 0.0 | 0.00 | 0.00 | 0.00 | 99 | 1016.2 |
| 20260508105811 | 71 | 238 | 0.0 | 0.0 | 0.00 | 0.00 | 0.00 | 99 | 1016.5 |
| 20260508105308 | 71 | 238 | 0.0 | 0.0 | 0.00 | 0.00 | 0.00 | 99 | 1016.2 |
| 20260508104805 | 71 | 238 | 0.0 | 0.0 | 0.00 | 0.00 | 0.00 | 99 | 1016.2 |
| 20260508104302 | 71 | 238 | 0.0 | 0.0 | 0.00 | 0.00 | 0.00 | 99 | 1015.8 |
| 20260508103759 | 70 | 238 | 0.0 | 0.0 | 0.00 | 0.00 | 0.00 | 99 | 1015.8 |
| 20260508103256 | 71 | 238 | 0.0 | 0.0 | 0.00 | 0.00 | 0.00 | 99 | 1015.5 |
| 20260508102754 | 71 | 238 | 0.0 | 0.0 | 0.00 | 0.00 | 0.00 | 99 | 1015.5 |
| 20260508102252 | 71 | 238 | 0.0 | 0.0 | 0.00 | 0.00 | 0.00 | 99 | 1015.5 |
| 20260508101749 | 71 | 238 | 0.0 | 0.0 | 0.00 | 0.00 | 0.00 | 99 | 1015.5 |
| 20260508101246 | 71 | 238 | 0.0 | 0.0 | 0.00 | 0.00 | 0.00 | 99 | 1015.5 |
| 20260508100743 | 71 | 238 | 0.0 | 0.0 | 0.00 | 0.00 | 0.00 | 99 | 1015.5 |
| 20260508100241 | 71 | 238 | 0.0 | 0.0 | 0.00 | 0.00 | 0.00 | 99 | 1015.2 |
| 20260508095737 | 71 | 238 | 0.0 | 0.0 | 0.00 | 0.00 | 0.00 | 99 | 1015.2 |
| 20260508095235 | 72 | 238 | 0.0 | 0.0 | 0.00 | 0.00 | 0.00 | 99 | 1015.2 |
| 20260508094731 | 72 | 238 | 0.0 | 0.0 | 0.00 | 0.00 | 0.00 | 99 | 1015.2 |
| 20260508094229 | 72 | 238 | 0.0 | 0.0 | 0.00 | 0.00 | 0.00 | 99 | 1015.2 |
| 20260508093726 | 72 | 238 | 0.0 | 0.0 | 0.00 | 0.00 | 0.00 | 99 | 1015.2 |
| 20260508093224 | 72 | 238 | 0.0 | 0.0 | 0.00 | 0.00 | 0.00 | 99 | 1015.2 |
| 20260508092720 | 72 | 238 | 0.0 | 0.0 | 0.00 | 0.00 | 0.00 | 99 | 1015.2 |
| 20260508092218 | 72 | 238 | 0.0 | 0.0 | 0.00 | 0.00 | 0.00 | 99 | 1015.5 |
| 20260508091716 | 72 | 238 | 0.0 | 0.0 | 0.00 | 0.00 | 0.00 | 99 | 1015.5 |
| 20260508091213 | 73 | 238 | 0.0 | 0.0 | 0.00 | 0.00 | 0.00 | 99 | 1015.5 |
| 20260508090711 | 73 | 251 | 0.0 | 0.0 | 0.00 | 0.00 | 0.00 | 98 | 1015.2 |
| 20260508090208 | 73 | 256 | 0.0 | 0.0 | 0.00 | 0.00 | 0.00 | 98 | 1015.2 |
| 20260508085703 | 73 | 251 | 0.0 | 0.0 | 0.00 | 0.00 | 0.00 | 98 | 1015.2 |
| 20260508085201 | 73 | 233 | 0.0 | 0.0 | 0.00 | 0.00 | 0.00 | 98 | 1015.2 |
| 20260508084657 | 73 | 243 | 1.0 | 2.0 | 0.00 | 0.00 | 0.00 | 98 | 1015.2 |
| 20260508084155 | 73 | 235 | 0.0 | 0.0 | 0.00 | 0.00 | 0.00 | 97 | 1015.2 |
| 20260508083652 | 73 | 203 | 0.0 | 0.0 | 0.00 | 0.00 | 0.00 | 97 | 1015.2 |
| 20260508083149 | 73 | 199 | 0.0 | 0.0 | 0.00 | 0.00 | 0.00 | 97 | 1015.2 |
| 20260508082644 | 73 | 276 | 1.0 | 2.0 | 0.00 | 0.00 | 0.00 | 97 | 1015.5 |
| 20260508082141 | 73 | 270 | 2.0 | 2.0 | 0.00 | 0.00 | 0.00 | 97 | 1015.5 |
| 20260508081634 | 73 | 242 | 2.0 | 2.0 | 0.00 | 0.00 | 0.00 | 97 | 1015.2 |
| 20260508081130 | 73 | 251 | 1.0 | 1.0 | 0.00 | 0.00 | 0.00 | 96 | 1015.2 |
| 20260508080627 | 73 | 226 | 0.0 | 1.0 | 0.00 | 0.00 | 0.00 | 96 | 1015.2 |
| 20260508080126 | 73 | 202 | 0.0 | 0.0 | 0.00 | 0.00 | 0.00 | 96 | 1015.2 |
| 20260508075621 | 73 | 224 | 1.0 | 2.0 | 0.00 | 0.00 | 0.00 | 96 | 1015.5 |
| 20260508075118 | 74 | 273 | 5.0 | 5.0 | 0.00 | 0.00 | 0.00 | 96 | 1015.2 |
| 20260508074616 | 74 | 238 | 1.0 | 2.0 | 0.00 | 0.00 | 0.00 | 95 | 1015.2 |
| 20260508074113 | 74 | 219 | 3.0 | 3.0 | 0.00 | 0.00 | 0.00 | 95 | 1015.5 |
| 20260508073610 | 74 | 191 | 1.0 | 1.0 | 0.00 | 0.00 | 0.00 | 95 | 1015.2 |
| 20260508073108 | 74 | 216 | 1.0 | 1.0 | 0.00 | 0.00 | 0.00 | 94 | 1015.2 |
| 20260508072603 | 74 | 286 | 0.0 | 1.0 | 0.00 | 0.00 | 0.00 | 94 | 1015.2 |
| 20260508072101 | 74 | 283 | 3.0 | 3.0 | 0.00 | 0.00 | 0.00 | 94 | 1015.2 |
| 20260508071559 | 74 | 272 | 5.0 | 7.0 | 0.00 | 0.00 | 0.00 | 94 | 1015.2 |
| 20260508071056 | 74 | 215 | 3.0 | 3.0 | 0.00 | 0.00 | 0.00 | 93 | 1015.2 |
| 20260508070553 | 74 | 248 | 3.0 | 3.0 | 0.00 | 0.00 | 0.00 | 93 | 1015.5 |
| 20260508070052 | 74 | 268 | 3.0 | 3.0 | 0.00 | 0.00 | 0.00 | 93 | 1015.2 |
| 20260508065549 | 74 | 227 | 2.0 | 2.0 | 0.00 | 0.00 | 0.00 | 92 | 1015.2 |
| 20260508065047 | 75 | 206 | 2.0 | 2.0 | 0.00 | 0.00 | 0.00 | 92 | 1015.2 |
| 20260508064544 | 75 | 217 | 1.0 | 1.0 | 0.00 | 0.00 | 0.00 | 91 | 1015.2 |
| 20260508064042 | 75 | 259 | 3.0 | 5.0 | 0.00 | 0.00 | 0.00 | 91 | 1015.2 |
| 20260508063539 | 75 | 235 | 1.0 | 1.0 | 0.00 | 0.00 | 0.00 | 91 | 1015.5 |
| 20260508063037 | 75 | 229 | 2.0 | 2.0 | 0.00 | 0.00 | 0.00 | 90 | 1015.5 |
| 20260508062534 | 75 | 271 | 3.0 | 6.0 | 0.00 | 0.00 | 0.00 | 90 | 1015.5 |
| 20260508062031 | 75 | 292 | 2.0 | 2.0 | 0.00 | 0.00 | 0.00 | 89 | 1015.5 |
| 20260508061529 | 75 | 250 | 5.0 | 6.0 | 0.00 | 0.00 | 0.00 | 89 | 1015.5 |
| 20260508061025 | 75 | 263 | 3.0 | 3.0 | 0.00 | 0.00 | 0.00 | 89 | 1015.8 |
| 20260508060522 | 75 | 220 | 3.0 | 3.0 | 0.00 | 0.00 | 0.00 | 88 | 1015.5 |
| 20260508060020 | 75 | 248 | 3.0 | 5.0 | 0.00 | 0.00 | 0.00 | 88 | 1015.8 |
| 20260508055515 | 75 | 263 | 5.0 | 5.0 | 0.00 | 0.00 | 0.00 | 87 | 1015.5 |
| 20260508055012 | 75 | 281 | 3.0 | 3.0 | 0.00 | 0.00 | 0.00 | 87 | 1015.8 |
| 20260508054509 | 75 | 242 | 2.0 | 2.0 | 0.00 | 0.00 | 0.00 | 86 | 1015.5 |
| 20260508054006 | 75 | 221 | 2.0 | 2.0 | 0.00 | 0.00 | 0.00 | 85 | 1015.8 |
| 20260508053502 | 75 | 251 | 4.0 | 5.0 | 0.00 | 0.00 | 0.00 | 85 | 1015.8 |
| 20260508053001 | 75 | 214 | 4.0 | 6.0 | 0.00 | 0.00 | 0.00 | 84 | 1015.8 |
| 20260508052458 | 75 | 245 | 3.0 | 5.0 | 0.00 | 0.00 | 0.00 | 84 | 1015.8 |
| 20260508051954 | 76 | 221 | 3.0 | 3.0 | 0.00 | 0.00 | 0.00 | 84 | 1016.2 |
| 20260508051450 | 76 | 260 | 4.0 | 5.0 | 0.00 | 0.00 | 0.00 | 83 | 1015.8 |
| 20260508050946 | 76 | 216 | 3.0 | 3.0 | 0.00 | 0.00 | 0.00 | 83 | 1015.8 |
| 20260508050443 | 76 | 273 | 4.0 | 6.0 | 0.00 | 0.00 | 0.00 | 83 | 1015.8 |
| 20260508045939 | 76 | 268 | 3.0 | 5.0 | 0.00 | 0.00 | 0.00 | 82 | 1016.2 |
| 20260508045437 | 76 | 257 | 4.0 | 5.0 | 0.00 | 0.00 | 0.00 | 82 | 1016.2 |
| 20260508044934 | 76 | 271 | 4.0 | 5.0 | 0.00 | 0.00 | 0.00 | 82 | 1016.2 |
| 20260508044431 | 76 | 220 | 3.0 | 3.0 | 0.00 | 0.00 | 0.00 | 81 | 1016.2 |
| 20260508043926 | 76 | 223 | 1.0 | 2.0 | 0.00 | 0.00 | 0.00 | 81 | 1016.2 |
| 20260508043424 | 77 | 229 | 4.0 | 6.0 | 0.00 | 0.00 | 0.00 | 81 | 1016.2 |
| 20260508042920 | 77 | 248 | 3.0 | 5.0 | 0.00 | 0.00 | 0.00 | 81 | 1016.2 |
| 20260508042418 | 77 | 220 | 4.0 | 5.0 | 0.00 | 0.00 | 0.00 | 81 | 1016.2 |
| 20260508041915 | 77 | 216 | 3.0 | 5.0 | 0.00 | 0.00 | 0.00 | 81 | 1016.2 |
| 20260508041411 | 77 | 259 | 3.0 | 3.0 | 0.00 | 0.00 | 0.00 | 81 | 1016.2 |
| 20260508040907 | 77 | 242 | 1.0 | 2.0 | 0.00 | 0.00 | 0.00 | 80 | 1016.2 |
| 20260508040404 | 77 | 241 | 3.0 | 3.0 | 0.00 | 0.00 | 0.00 | 80 | 1016.2 |
| 20260508035902 | 77 | 188 | 3.0 | 5.0 | 0.00 | 0.00 | 0.00 | 79 | 1016.2 |
| 20260508035354 | 78 | 233 | 5.0 | 5.0 | 0.00 | 0.00 | 0.00 | 79 | 1016.2 |
| 20260508034850 | 78 | 228 | 6.0 | 7.0 | 0.00 | 0.00 | 0.00 | 79 | 1016.2 |
| 20260508034348 | 78 | 264 | 4.0 | 5.0 | 0.00 | 0.00 | 0.00 | 78 | 1015.8 |
| 20260508033844 | 78 | 223 | 4.0 | 6.0 | 0.00 | 0.00 | 0.00 | 78 | 1016.2 |
| 20260508033343 | 78 | 266 | 5.0 | 7.0 | 0.00 | 0.00 | 0.00 | 77 | 1015.8 |
| 20260508032840 | 78 | 251 | 4.0 | 5.0 | 0.00 | 0.00 | 0.00 | 77 | 1015.8 |
| 20260508032337 | 79 | 245 | 3.0 | 5.0 | 0.00 | 0.00 | 0.00 | 76 | 1015.8 |
| 20260508031834 | 79 | 283 | 4.0 | 5.0 | 0.00 | 0.00 | 0.00 | 75 | 1015.5 |
| 20260508031331 | 79 | 258 | 4.0 | 5.0 | 0.00 | 0.00 | 0.00 | 74 | 1015.5 |
| 20260508030827 | 79 | 227 | 5.0 | 5.0 | 0.00 | 0.00 | 0.00 | 73 | 1015.8 |
| 20260508030324 | 79 | 233 | 7.0 | 8.0 | 0.00 | 0.00 | 0.00 | 73 | 1015.8 |
| 20260508025821 | 80 | 243 | 5.0 | 6.0 | 0.00 | 0.00 | 0.00 | 73 | 1015.8 |
| 20260508025318 | 80 | 214 | 3.0 | 3.0 | 0.00 | 0.00 | 0.00 | 74 | 1015.8 |
| 20260508024815 | 80 | 283 | 6.0 | 7.0 | 0.00 | 0.00 | 0.00 | 73 | 1015.8 |
| 20260508024311 | 80 | 254 | 6.0 | 7.0 | 0.00 | 0.00 | 0.00 | 72 | 1015.5 |
| 20260508023808 | 80 | 211 | 4.0 | 5.0 | 0.00 | 0.00 | 0.00 | 72 | 1015.2 |
| 20260508023305 | 81 | 249 | 7.0 | 7.0 | 0.00 | 0.00 | 0.00 | 71 | 1015.2 |
| 20260508022801 | 81 | 243 | 5.0 | 7.0 | 0.00 | 0.00 | 0.00 | 70 | 1015.5 |
| 20260508022257 | 81 | 279 | 7.0 | 9.0 | 0.00 | 0.00 | 0.00 | 69 | 1015.2 |
| 20260508021755 | 81 | 236 | 4.0 | 5.0 | 0.00 | 0.00 | 0.00 | 68 | 1015.5 |
| 20260508021250 | 81 | 236 | 7.0 | 10.0 | 0.00 | 0.00 | 0.00 | 67 | 1015.5 |
| 20260508020747 | 82 | 229 | 6.0 | 7.0 | 0.00 | 0.00 | 0.00 | 66 | 1015.5 |
| 20260508020245 | 82 | 250 | 6.0 | 7.0 | 0.00 | 0.00 | 0.00 | 66 | 1015.2 |
| 20260508015741 | 82 | 217 | 7.0 | 9.0 | 0.00 | 0.00 | 0.00 | 65 | 1015.2 |
| 20260508015239 | 82 | 262 | 4.0 | 6.0 | 0.00 | 0.00 | 0.00 | 63 | 1015.2 |
| 20260508014735 | 82 | 235 | 5.0 | 5.0 | 0.00 | 0.00 | 0.00 | 62 | 1015.2 |
| 20260508014232 | 82 | 270 | 5.0 | 7.0 | 0.00 | 0.00 | 0.00 | 60 | 1015.2 |
| 20260508013728 | 82 | 230 | 5.0 | 7.0 | 0.00 | 0.00 | 0.00 | 59 | 1015.2 |
| 20260508013225 | 83 | 234 | 4.0 | 5.0 | 0.00 | 0.00 | 0.00 | 57 | 1015.2 |
| 20260508012722 | 83 | 212 | 2.0 | 2.0 | 0.00 | 0.00 | 0.00 | 56 | 1015.2 |
| 20260508012219 | 83 | 237 | 4.0 | 5.0 | 0.00 | 0.00 | 0.00 | 55 | 1015.2 |
| 20260508011717 | 83 | 208 | 3.0 | 5.0 | 0.00 | 0.00 | 0.00 | 54 | 1015.2 |
| 20260508011214 | 83 | 267 | 7.0 | 9.0 | 0.00 | 0.00 | 0.00 | 53 | 1015.2 |
| 20260508010711 | 84 | 245 | 5.0 | 6.0 | 0.00 | 0.00 | 0.00 | 50 | 1015.2 |
| 20260508010209 | 84 | 252 | 3.0 | 3.0 | 0.00 | 0.00 | 0.00 | 49 | 1015.2 |
| 20260508005706 | 84 | 242 | 3.0 | 3.0 | 0.00 | 0.00 | 0.00 | 47 | 1015.2 |
| 20260508005203 | 84 | 288 | 4.0 | 7.0 | 0.00 | 0.00 | 0.00 | 46 | 1014.8 |
| 20260508004658 | 84 | 224 | 4.0 | 5.0 | 0.00 | 0.00 | 0.00 | 45 | 1014.8 |
| 20260508004154 | 85 | 226 | 4.0 | 5.0 | 0.00 | 0.00 | 0.00 | 43 | 1014.8 |
| 20260508003652 | 85 | 271 | 4.0 | 6.0 | 0.00 | 0.00 | 0.00 | 43 | 1015.2 |
| 20260508003149 | 85 | 296 | 4.0 | 6.0 | 0.00 | 0.00 | 0.00 | 42 | 1015.2 |
| 20260508002645 | 86 | 270 | 5.0 | 8.0 | 0.00 | 0.00 | 0.00 | 41 | 1014.8 |
| 20260508002143 | 86 | 263 | 2.0 | 3.0 | 0.00 | 0.00 | 0.00 | 41 | 1014.5 |
| 20260508001638 | 86 | 218 | 2.0 | 2.0 | 0.00 | 0.00 | 0.00 | 41 | 1014.5 |
| 20260508001134 | 86 | 263 | 5.0 | 6.0 | 0.00 | 0.00 | 0.00 | 41 | 1014.5 |
| 20260508000630 | 87 | 253 | 4.0 | 5.0 | 0.00 | 0.00 | 0.00 | 41 | 1014.5 |
| 20260508000128 | 87 | 215 | 5.0 | 8.0 | 0.00 | 0.00 | 0.00 | 40 | 1014.5 |
| 20260507235624 | 87 | 258 | 4.0 | 5.0 | 0.00 | 0.00 | 0.00 | 39 | 1014.5 |
| 20260507235122 | 88 | 215 | 5.0 | 7.0 | 0.00 | 0.00 | 0.00 | 38 | 1014.5 |
| 20260507234618 | 88 | 252 | 5.0 | 6.0 | 0.00 | 0.00 | 0.00 | 38 | 1014.5 |
| 20260507234115 | 89 | 217 | 5.0 | 5.0 | 0.00 | 0.00 | 0.00 | 37 | 1014.5 |
| 20260507233612 | 89 | 247 | 4.0 | 6.0 | 0.00 | 0.00 | 0.00 | 35 | 1014.5 |
| 20260507233110 | 89 | 241 | 6.0 | 7.0 | 0.00 | 0.00 | 0.00 | 35 | 1014.5 |
| 20260507232606 | 90 | 211 | 3.0 | 3.0 | 0.00 | 0.00 | 0.00 | 34 | 1014.5 |
| 20260507232104 | 90 | 294 | 3.0 | 3.0 | 0.00 | 0.00 | 0.00 | 33 | 1014.5 |
| 20260507231600 | 91 | 214 | 5.0 | 6.0 | 0.00 | 0.00 | 0.00 | 32 | 1014.2 |
| 20260507231057 | 91 | 233 | 5.0 | 6.0 | 0.00 | 0.00 | 0.00 | 34 | 1014.2 |
| 20260507230554 | 91 | 272 | 5.0 | 8.0 | 0.00 | 0.00 | 0.00 | 35 | 1014.5 |
| 20260507230050 | 91 | 226 | 4.0 | 6.0 | 0.00 | 0.00 | 0.00 | 36 | 1014.5 |
| 20260507225545 | 92 | 227 | 4.0 | 5.0 | 0.00 | 0.00 | 0.00 | 38 | 1014.5 |
| 20260507225042 | 92 | 286 | 6.0 | 8.0 | 0.00 | 0.00 | 0.00 | 37 | 1014.5 |
| 20260507224538 | 91 | 270 | 2.0 | 2.0 | 0.00 | 0.00 | 0.00 | 37 | 1014.2 |
| 20260507224034 | 91 | 289 | 7.0 | 8.0 | 0.00 | 0.00 | 0.00 | 38 | 1014.5 |
| 20260507223531 | 93 | 321 | 3.0 | 3.0 | 0.00 | 0.00 | 0.00 | 38 | 1014.2 |
| 20260507223028 | 92 | 352 | 5.0 | 7.0 | 0.00 | 0.00 | 0.00 | 38 | 1014.2 |
| 20260507222525 | 93 | 307 | 5.0 | 6.0 | 0.00 | 0.00 | 0.00 | 41 | 1014.2 |
| 20260507222021 | 93 | 85 | 1.0 | 2.0 | 0.00 | 0.00 | 0.00 | 42 | 1014.2 |
| 20260507221518 | 93 | 248 | 6.0 | 7.0 | 0.00 | 0.00 | 0.00 | 42 | 1013.8 |
| 20260507221015 | 93 | 345 | 5.0 | 7.0 | 0.00 | 0.00 | 0.00 | 42 | 1014.2 |
| 20260507220512 | 93 | 246 | 9.0 | 11.0 | 0.00 | 0.00 | 0.00 | 42 | 1013.8 |
| 20260507220009 | 94 | 229 | 5.0 | 7.0 | 0.00 | 0.00 | 0.00 | 41 | 1014.2 |
| 20260507215505 | 95 | 204 | 7.0 | 9.0 | 0.00 | 0.00 | 0.00 | 39 | 1013.8 |
| 20260507215003 | 95 | 211 | 5.0 | 6.0 | 0.00 | 0.00 | 0.00 | 35 | 1013.8 |
| 20260507214500 | 95 | 230 | 5.0 | 8.0 | 0.00 | 0.00 | 0.00 | 34 | 1014.2 |
| 20260507213955 | 95 | 283 | 8.0 | 10.0 | 0.00 | 0.00 | 0.00 | 35 | 1014.2 |
| 20260507213452 | 95 | 231 | 5.0 | 6.0 | 0.00 | 0.00 | 0.00 | 34 | 1013.8 |
| 20260507212949 | 95 | 239 | 4.0 | 6.0 | 0.00 | 0.00 | 0.00 | 34 | 1013.8 |
| 20260507212445 | 95 | 219 | 2.0 | 3.0 | 0.00 | 0.00 | 0.00 | 35 | 1014.2 |
| 20260507211942 | 96 | 198 | 9.0 | 10.0 | 0.00 | 0.00 | 0.00 | 34 | 1013.8 |
| 20260507211438 | 95 | 188 | 6.0 | 7.0 | 0.00 | 0.00 | 0.00 | 34 | 1014.2 |
| 20260507210935 | 96 | 280 | 3.0 | 3.0 | 0.00 | 0.00 | 0.00 | 34 | 1014.2 |
| 20260507210432 | 95 | 226 | 3.0 | 3.0 | 0.00 | 0.00 | 0.00 | 34 | 1014.5 |
| 20260507205929 | 95 | 232 | 7.0 | 9.0 | 0.00 | 0.00 | 0.00 | 34 | 1014.5 |
| 20260507205426 | 95 | 220 | 5.0 | 6.0 | 0.00 | 0.00 | 0.00 | 34 | 1014.2 |
| 20260507204922 | 96 | 227 | 10.0 | 14.0 | 0.00 | 0.00 | 0.00 | 33 | 1014.5 |
| 20260507204419 | 95 | 249 | 5.0 | 6.0 | 0.00 | 0.00 | 0.00 | 34 | 1014.5 |
| 20260507203916 | 95 | 295 | 5.0 | 6.0 | 0.00 | 0.00 | 0.00 | 33 | 1014.2 |
| 20260507203414 | 95 | 238 | 8.0 | 9.0 | 0.00 | 0.00 | 0.00 | 33 | 1014.5 |
| 20260507202910 | 95 | 243 | 7.0 | 8.0 | 0.00 | 0.00 | 0.00 | 33 | 1014.5 |
| 20260507202407 | 96 | 280 | 5.0 | 7.0 | 0.00 | 0.00 | 0.00 | 31 | 1014.5 |
| 20260507201903 | 94 | 258 | 6.0 | 7.0 | 0.00 | 0.00 | 0.00 | 33 | 1014.5 |
| 20260507201358 | 94 | 228 | 9.0 | 10.0 | 0.00 | 0.00 | 0.00 | 35 | 1014.5 |
| 20260507200854 | 95 | 254 | 5.0 | 7.0 | 0.00 | 0.00 | 0.00 | 35 | 1014.8 |
| 20260507200351 | 95 | 284 | 5.0 | 7.0 | 0.00 | 0.00 | 0.00 | 35 | 1014.8 |
| 20260507195847 | 95 | 251 | 5.0 | 6.0 | 0.00 | 0.00 | 0.00 | 33 | 1014.8 |
| 20260507195344 | 94 | 306 | 6.0 | 8.0 | 0.00 | 0.00 | 0.00 | 34 | 1014.8 |
| 20260507194842 | 95 | 254 | 5.0 | 6.0 | 0.00 | 0.00 | 0.00 | 34 | 1014.8 |
| 20260507194338 | 95 | 254 | 7.0 | 9.0 | 0.00 | 0.00 | 0.00 | 33 | 1015.2 |
| 20260507193834 | 95 | 262 | 7.0 | 8.0 | 0.00 | 0.00 | 0.00 | 34 | 1015.2 |
| 20260507193332 | 95 | 222 | 4.0 | 6.0 | 0.00 | 0.00 | 0.00 | 36 | 1015.2 |
| 20260507192827 | 93 | 198 | 0.0 | 1.0 | 0.00 | 0.00 | 0.00 | 41 | 1014.8 |
| 20260507192324 | 93 | 213 | 4.0 | 5.0 | 0.00 | 0.00 | 0.00 | 41 | 1015.2 |
| 20260507191821 | 94 | 225 | 5.0 | 8.0 | 0.00 | 0.00 | 0.00 | 40 | 1015.2 |
| 20260507191317 | 93 | 206 | 3.0 | 3.0 | 0.00 | 0.00 | 0.00 | 39 | 1015.2 |
| 20260507190814 | 94 | 210 | 5.0 | 7.0 | 0.00 | 0.00 | 0.00 | 40 | 1015.5 |
| 20260507190312 | 93 | 229 | 3.0 | 6.0 | 0.00 | 0.00 | 0.00 | 39 | 1015.5 |
| 20260507185811 | 93 | 219 | 8.0 | 10.0 | 0.00 | 0.00 | 0.00 | 36 | 1015.8 |
| 20260507185307 | 93 | 250 | 6.0 | 7.0 | 0.00 | 0.00 | 0.00 | 39 | 1015.8 |
| 20260507184805 | 94 | 207 | 8.0 | 10.0 | 0.00 | 0.00 | 0.00 | 38 | 1015.8 |
| 20260507184303 | 94 | 189 | 2.0 | 2.0 | 0.00 | 0.00 | 0.00 | 41 | 1015.5 |
| 20260507183759 | 94 | 208 | 5.0 | 7.0 | 0.00 | 0.00 | 0.00 | 42 | 1015.8 |
| 20260507183256 | 93 | 195 | 5.0 | 6.0 | 0.00 | 0.00 | 0.00 | 42 | 1016.2 |
| 20260507182753 | 92 | 228 | 7.0 | 9.0 | 0.00 | 0.00 | 0.00 | 43 | 1016.2 |
| 20260507182248 | 93 | 200 | 6.0 | 8.0 | 0.00 | 0.00 | 0.00 | 42 | 1016.5 |
| 20260507181745 | 92 | 186 | 4.0 | 5.0 | 0.00 | 0.00 | 0.00 | 42 | 1016.5 |